Location: Campillo
(40.8621°N, 4.2488°W)
Time: 12:59:40
(UTC+00:00)

USA 306 - Pass Details

Date: 11 May 2021
Orbit: 565 x 575 km, 54.0° (Epoch: 11 May)

Event Time Altitude Azimuth Distance (km) Brightness Sun altitude
Rises 22:20:15 0° 311° (NW) 2,773 7.6 -25.4°
Reaches altitude 10° 22:22:31 10° 312° (NW) 1,875 6.4 -25.6°
Enters shadow 22:26:03 59° 330° (NNW) 663 3.4 -26.0°
